weather.gov     
National Weather Service

Terminal Aerodrome Forecast
NWS Homepage
This page is being discontinued on March 12, 2014.
The same data is available at this site. Please update your bookmarks.
Thank you, and we apologize for the inconvenience.
Please send an email to SR-SRH.Webmaster@noaa.gov with any concerns.


Current Version
Previous Version:    01  02  03  04  05  06  07  08  09  10  11  12  13  14  
[Printable]
819
FTUS41 KBOX 230919 AAA
TAFMHT
TAF AMD
KMHT 230919Z 2309/2406 01016KT 2SM -RA BR OVC012 WS020/04040KT
     FM231100 01014G27KT 3SM -SHRA BR VCTS OVC008CB WS020/04040KT
     FM231400 01013G27KT 2SM -SHRA BR OVC008
     FM240200 35010G21KT 3SM BR OVC008=




819
FTUS41 KBOX 230919 AAA
TAFMHT
TAF AMD
KMHT 230919Z 2309/2406 01016KT 2SM -RA BR OVC012 WS020/04040KT
     FM231100 01014G27KT 3SM -SHRA BR VCTS OVC008CB WS020/04040KT
     FM231400 01013G27KT 2SM -SHRA BR OVC008
     FM240200 35010G21KT 3SM BR OVC008=


U.S. Dept. of Commerce
NOAA National Weather Service
1325 East West Highway
Silver Spring, MD 20910
E-mail: w-nws.webmaster@noaa.gov
Page last modified: May 16, 2007
NATIONAL WEATHER SERVICE: for Safety, for Work, for Fun - FOR LIFE